Hourly Data Report for October 10, 2016

All times are specified in Local Standard Time (LST). Add 1 hour to adjust for Daylight Saving Time where and when it is observed.

CORAL HARBOUR A
NUNAVUT

64°11'36.000" N
83°21'34.000" W
62.20 m
2301002
71915
YZS

Download Data

Hourly Data (October 2016)
Hourly Data Report for October 10, 2016
Temp Definition
°C
Dew Point Temp Definition
°C
Rel Hum Definition
%
Wind Dir Definition
10's deg

Wind Spd Definition
km/h
Visibility Definition
km
Stn Press Definition
kPa
Hmdx Definition


Wind Chill Definition


Weather Definition


TIME
00:00 Legend Double Dagger -3.9 -6.1 85 28 12 24.1 100.95   -9 LegendNANA
01:00 Legend Double Dagger -6.5 -7.9 90 28 11 24.1 100.94   -11 Mostly Cloudy
02:00 Legend Double Dagger -4.6 -5.6 93 25 13 24.1 100.92   -10 LegendNANA
03:00 Legend Double Dagger -3.5 -4.5 93 26 14 24.1 100.90   -9 LegendNANA
04:00 Legend Double Dagger -3.7 -4.8 92 26 16 24.1 100.90   -9 Mainly Clear
05:00 Legend Double Dagger -4.4 -5.5 92 26 16 24.1 100.90   -10 LegendNANA
06:00 Legend Double Dagger -4.0 -5.1 92 26 17 24.1 100.91   -10 LegendNANA
07:00 Legend Double Dagger -4.1 -5.2 92 29 10 24.1 100.87   -8 Cloudy
08:00 Legend Double Dagger -4.0 -5.3 91 27 10 24.1 100.84   -8 LegendNANA
09:00 Legend Double Dagger -3.5 -5.4 87 24 10 24.1 100.80   -7 Snow
10:00 Legend Double Dagger -2.9 -5.7 81 25 12 24.1 100.78   -7 Snow
11:00 Legend Double Dagger -2.5 -5.2 82 24 15 24.1 100.75   -7 LegendNANA
12:00 Legend Double Dagger -2.5 -4.5 86 25 16 19.3 100.72   -8 Snow
13:00 Legend Double Dagger -2.4 -4.9 83 25 16 24.1 100.68   -8 Snow
14:00 Legend Double Dagger -2.5 -6.0 77 26 18 24.1 100.66   -8 LegendNANA
15:00 Legend Double Dagger -3.1 -5.3 85 29 22 24.1 100.64   -9 LegendNANA
16:00 Legend Double Dagger -4.1 -6.1 86 27 21 24.1 100.65   -11 Mostly Cloudy
17:00 Legend Double Dagger -3.9 -6.4 83 29 21 24.1 100.64   -10 LegendNANA
18:00 Legend Double Dagger -4.1 -7.1 80 28 16 24.1 100.67   -10 LegendNANA
19:00 Legend Double Dagger -4.1 -7.2 79 28 13 24.1 100.68   -9 Cloudy
20:00 Legend Double Dagger -4.5 -9.2 70 29 22 24.1 100.66   -11 Snow
21:00 Legend Double Dagger -6.0 -9.6 76 29 14 24.1 100.63   -12 LegendNANA
22:00 Legend Double Dagger -8.2 -10.4 84 32 11 24.1 100.63   -13 Mainly Clear
23:00 Legend Double Dagger -8.4 -10.8 83 30 12 24.1 100.61   -14 LegendNANA

Notes on Data Quality.

Legend

  • E = Estimated
  • M = Missing
  • NA = Not Available
  • ‡ = Partner data that is not subject to review by the National Climate Archives
Date modified: